Location: Hope
(40.9110°N, 74.9680°W)
Time: 12:05:20
(UTC-04:00)

X-37B - Visible Passes

Search period start: 26 September 2020 00:00
Search period end: 06 October 2020 00:00
Orbit: 386 x 387 km, 45.0° (Epoch: 18 September)

Date Brightness Start Highest point End Pass type
(mag) Time Alt. Az. Time Alt. Az. Time Alt. Az.
30 Sep 2.7 20:05:17 10° S 20:06:26 16° S 20:06:26 16° S visible
01 Oct 3.0 19:09:04 10° SE 19:09:16 10° SE 19:09:27 10° SE visible
01 Oct 2.9 20:42:15 10° SW 20:43:20 19° SW 20:43:20 19° SW visible
02 Oct 1.4 19:44:00 10° SW 19:46:54 33° SSE 19:47:47 27° ESE visible
03 Oct 1.0 20:21:39 10° WSW 20:24:23 63° W 20:24:23 63° W visible
04 Oct 0.7 19:23:08 10° SW 19:26:15 60° SSE 19:28:36 16° ENE visible
04 Oct 3.6 20:59:56 10° W 21:00:52 17° WNW 21:00:52 17° WNW visible
05 Oct 1.1 20:01:11 10° W 20:04:19 54° NNW 20:05:00 43° NNE visible
